"startDT [UTC]","vpos","CH4 [ppm]","stdev(CH4) [ppm]","CO2 [ppm]","stdev(CO2) [ppm]","H2O_reported [%]","stdev(H2O_reported)","CavityPressure [torr]","CavityTemp [C]","OutletValve","CH4_dry [ppm]","CO2_dry [ppm]","DasTemp [C]","EtalonTemp [C]","WarmBoxTemp [C]","MPVPosition","T_ECpre [C]","T_EC1 [C]","T_EC2 [C]","p_inlet [hPa]","p_in [hPa]","p_out [hPa]","T_inlet [C]","RH_inlet [%]","dwpt_inlet [C]","T_vent [C]","RH_vent [%]","dwpt_vent [C]","flow_vent [l min-1]","flow_inlet [l min-1]","dwpt_sample [C]","T_room [C]"
2015-10-07 00:00:00,3.0,1.88124,0.01676,397.813,0.728,0.0896,0.1384,139.975,45.001,31527.44851,1.88478,398.293,36.555,45.068,45.000,0.00,0.09,-272.74,-272.81,-8,485,-944,21.9,12.2,-8.6,22.1,12.2,-8.4,5.73,2.00,-5.2,28.1
2015-10-07 00:01:00,3.0,1.87673,0.00036,396.990,0.035,0.0183,0.0018,139.999,45.001,31505.85522,1.87705,397.078,36.567,45.068,45.000,0.00,0.09,-272.74,-272.80,-7,484,-944,21.8,12.4,-8.5,22.1,12.4,-8.2,5.73,1.71,-5.2,28.2
2015-10-07 00:02:00,3.0,1.87653,0.00036,397.195,0.105,0.0169,0.0016,139.999,45.001,31501.18286,1.87686,397.271,36.592,45.069,45.001,0.00,0.09,-272.74,-272.80,-8,484,-944,21.9,12.6,-8.2,22.1,12.6,-8.0,5.73,2.10,-5.2,28.2
2015-10-07 00:03:00,3.0,1.87630,0.00031,397.443,0.049,0.0153,0.0018,140.000,45.001,31499.11819,1.87658,397.515,36.623,45.069,45.001,0.00,0.09,-272.74,-272.81,-7,484,-944,21.9,12.7,-8.1,22.1,12.7,-7.9,5.73,1.70,-5.2,28.3
2015-10-07 00:04:00,3.0,1.87651,0.00027,397.508,0.031,0.0132,0.0021,139.999,45.001,31495.99532,1.87674,397.570,36.632,45.069,45.001,0.00,0.09,-272.75,-272.81,-7,484,-944,21.9,12.6,-8.1,22.1,12.7,-7.9,5.73,2.10,-5.2,28.3
2015-10-07 00:05:00,3.0,1.87660,0.00045,397.527,0.032,0.0103,0.0018,140.000,45.001,31496.78552,1.87678,397.577,36.676,45.069,45.001,0.00,0.09,-272.73,-272.80,-8,485,-944,21.9,12.6,-8.1,22.1,12.7,-7.9,5.73,1.72,-5.2,28.3
2015-10-07 00:06:00,3.0,1.87652,0.00042,397.516,0.034,0.0083,0.0017,139.999,45.001,31496.65670,1.87669,397.557,36.688,45.069,45.001,0.00,0.09,-272.75,-272.80,-7,485,-944,22.0,12.5,-8.2,22.2,12.6,-8.0,5.73,2.06,-5.2,28.3
2015-10-07 00:07:00,3.0,1.87656,0.00026,397.541,0.034,0.0062,0.0020,140.000,45.001,31495.84544,1.87668,397.570,36.705,45.069,45.001,0.00,0.09,-272.74,-272.81,-8,485,-944,22.0,12.4,-8.2,22.2,12.5,-8.0,5.73,1.78,-5.2,28.3
2015-10-07 00:08:00,3.0,1.87650,0.00038,397.533,0.030,0.0055,0.0020,140.001,45.001,31497.91770,1.87659,397.560,36.751,45.069,45.001,0.00,0.32,-270.93,-271.77,-7,485,-944,22.1,12.4,-8.2,22.2,12.5,-8.0,5.43,2.12,-11.2,28.3
2015-10-07 00:09:00,3.0,1.87655,0.00039,397.544,0.034,0.0046,0.0017,140.001,45.001,31499.00781,1.87666,397.567,36.787,45.069,45.001,0.00,0.09,-272.74,-272.80,-8,485,-944,22.1,12.3,-8.3,22.3,12.4,-8.0,5.73,1.86,-5.2,28.3
2015-10-07 00:10:00,3.0,1.87655,0.00038,397.553,0.032,0.0038,0.0022,140.001,45.001,31501.43216,1.87659,397.570,36.815,45.068,45.001,0.00,0.09,-272.75,-272.80,-8,485,-944,22.2,12.2,-8.3,22.3,12.3,-8.1,5.73,1.90,-5.1,28.4
2015-10-07 00:11:00,3.0,1.87666,0.00040,397.573,0.030,0.0036,0.0017,139.999,45.001,31501.43735,1.87675,397.589,36.827,45.068,45.000,0.00,0.09,-272.74,-272.80,-7,486,-944,22.3,12.0,-8.5,22.4,12.2,-8.2,5.73,1.95,-5.1,28.5
2015-10-07 00:12:00,3.0,1.87639,0.00029,397.551,0.025,0.0032,0.0019,140.000,45.000,31505.17915,1.87645,397.566,36.861,45.068,45.000,0.00,0.09,-272.74,-272.80,-9,486,-945,22.3,11.7,-8.8,22.5,12.0,-8.4,5.73,1.82,-5.1,28.5
2015-10-07 00:13:00,3.0,1.87649,0.00049,397.574,0.024,0.0020,0.0016,140.000,45.000,31505.66211,1.87652,397.583,36.875,45.068,45.000,0.00,0.09,-272.74,-272.81,-7,486,-945,22.4,11.6,-8.9,22.5,11.7,-8.6,5.73,2.00,-5.1,28.6
2015-10-07 00:14:00,3.0,1.87656,0.00041,397.588,0.026,0.0033,0.0026,140.001,45.001,31508.01472,1.87662,397.604,36.885,45.068,45.000,0.00,0.09,-272.74,-272.80,-8,486,-945,22.4,11.6,-8.8,22.5,11.8,-8.6,5.73,1.77,-5.1,28.7
2015-10-07 00:15:00,3.0,1.87642,0.00029,397.579,0.031,0.0027,0.0015,139.998,45.001,31509.40476,1.87644,397.590,36.909,45.068,45.001,0.00,0.09,-272.74,-272.80,-8,487,-945,22.5,11.6,-8.8,22.6,11.7,-8.6,5.73,2.03,-5.1,28.7
2015-10-07 00:16:00,3.0,1.87662,0.00046,397.582,0.037,0.0026,0.0019,140.000,45.000,31512.47473,1.87670,397.595,36.937,45.068,45.001,0.00,0.09,-272.74,-272.80,-8,487,-945,22.5,11.7,-8.7,22.6,11.8,-8.5,5.73,1.77,-5.1,28.7
2015-10-07 00:17:00,3.0,1.87676,0.00050,397.593,0.027,0.0021,0.0019,140.002,45.000,31512.70596,1.87677,397.603,36.948,45.068,45.001,0.00,0.09,-272.74,-272.81,-9,487,-945,22.5,11.6,-8.7,22.6,11.8,-8.5,5.73,2.03,-5.1,28.7
2015-10-07 00:18:00,3.0,1.87686,0.00040,397.582,0.026,0.0013,0.0018,140.001,45.001,31513.77653,1.87688,397.588,36.978,45.068,45.001,0.00,0.09,-272.74,-272.80,-7,487,-945,22.5,11.5,-8.8,22.7,11.7,-8.6,5.73,1.78,-5.1,28.8
2015-10-07 00:19:00,3.0,1.87662,0.00036,397.574,0.026,0.0025,0.0016,140.001,45.000,31516.09145,1.87669,397.588,37.001,45.068,45.001,0.00,0.09,-272.74,-272.81,-9,487,-945,22.6,11.6,-8.7,22.7,11.7,-8.4,5.73,2.00,-5.1,28.8
2015-10-07 00:20:00,0.0,1.91912,0.01609,397.248,0.388,0.3293,0.1443,140.019,45.000,31777.78274,1.92361,398.798,37.035,45.068,45.000,0.00,0.09,-272.75,-272.80,-9,525,-944,22.7,11.6,-8.6,22.8,11.8,-8.3,5.73,1.85,-5.1,28.9
2015-10-07 00:21:00,0.0,1.92482,0.00039,396.932,0.047,0.4114,0.0024,140.003,45.000,31803.11423,1.93270,398.920,37.006,45.068,45.000,0.00,0.09,-272.74,-272.80,-10,526,-944,22.7,11.6,-8.6,22.8,11.8,-8.3,5.73,2.12,-5.1,28.9
2015-10-07 00:22:00,0.0,1.92475,0.00052,396.910,0.036,0.4108,0.0024,139.999,45.000,31809.11123,1.93263,398.895,36.952,45.067,44.999,0.00,0.09,-272.73,-272.79,-10,527,-944,22.7,11.5,-8.7,22.8,11.7,-8.4,5.73,1.75,-5.1,28.9
2015-10-07 00:23:00,0.0,1.92484,0.00033,396.905,0.027,0.4123,0.0045,140.001,45.000,31816.39859,1.93273,398.897,36.852,45.067,44.999,0.00,0.09,-272.75,-272.80,-9,527,-944,22.7,11.5,-8.7,22.9,11.7,-8.4,5.73,1.91,-5.1,28.9
2015-10-07 00:24:00,0.0,1.92460,0.00044,396.884,0.041,0.4157,0.0049,140.001,44.999,31821.34832,1.93259,398.893,36.700,45.066,44.999,0.00,0.09,-272.74,-272.80,-9,527,-944,22.7,11.6,-8.6,22.8,11.7,-8.4,5.73,2.09,-5.1,28.9
2015-10-07 00:25:00,0.0,1.92448,0.00044,396.879,0.037,0.4145,0.0023,140.003,44.998,31823.01554,1.93243,398.880,36.511,45.066,44.998,0.00,0.09,-272.73,-272.80,-10,528,-944,22.7,11.6,-8.6,22.8,11.7,-8.3,5.73,1.91,-5.0,28.7
2015-10-07 00:26:00,0.0,1.92430,0.00032,396.859,0.035,0.4139,0.0026,140.000,44.997,31820.51374,1.93223,398.860,36.284,45.065,44.997,0.00,0.09,-272.74,-272.80,-10,528,-943,22.7,11.5,-8.7,22.8,11.7,-8.4,5.73,1.79,-5.0,28.6
2015-10-07 00:27:00,0.0,1.92479,0.00042,396.869,0.032,0.4131,0.0025,139.998,44.996,31812.56477,1.93271,398.865,36.040,45.065,44.997,0.00,0.09,-272.74,-272.80,-10,528,-943,22.7,11.5,-8.7,22.8,11.7,-8.4,5.73,1.82,-5.1,28.6
2015-10-07 00:28:00,0.0,1.92456,0.00033,396.859,0.029,0.4108,0.0024,140.000,44.995,31808.33924,1.93247,398.844,35.816,45.065,44.997,0.00,0.09,-272.74,-272.79,-10,528,-942,22.7,11.4,-8.8,22.8,11.6,-8.5,5.73,1.94,-5.0,28.5
2015-10-07 00:29:00,0.0,1.92461,0.00054,396.864,0.050,0.4084,0.0031,139.999,44.995,31800.01446,1.93242,398.835,35.599,45.065,44.998,0.00,0.09,-272.74,-272.79,-10,528,-942,22.6,11.4,-8.9,22.7,11.6,-8.6,5.73,2.04,-5.0,28.4
2015-10-07 00:30:00,0.0,1.92446,0.00042,396.827,0.039,0.4076,0.0029,139.996,44.995,31793.11648,1.93228,398.796,35.433,45.066,44.998,0.00,0.09,-272.75,-272.81,-10,528,-942,22.5,11.4,-9.0,22.7,11.6,-8.6,5.73,2.01,-5.0,28.4
2015-10-07 00:31:00,0.0,1.92429,0.00045,396.813,0.039,0.4082,0.0032,139.998,44.996,31789.39876,1.93211,398.783,35.297,45.066,44.999,0.00,0.09,-272.74,-272.80,-9,528,-941,22.5,11.4,-9.0,22.7,11.5,-8.7,5.73,1.84,-5.0,28.4
2015-10-07 00:32:00,0.0,1.92382,0.00035,396.776,0.026,0.4045,0.0040,139.998,44.997,31786.46160,1.93157,398.729,35.230,45.067,45.000,0.00,0.09,-272.73,-272.80,-9,528,-941,22.5,11.3,-9.1,22.7,11.5,-8.7,5.73,1.77,-5.0,28.3
2015-10-07 00:33:00,0.0,1.92402,0.00049,396.770,0.041,0.4041,0.0019,139.998,44.998,31784.83033,1.93177,398.724,35.213,45.068,45.001,0.00,0.09,-272.75,-272.80,-10,528,-942,22.5,11.3,-9.1,22.6,11.5,-8.8,5.73,2.04,-5.0,28.3
2015-10-07 00:34:00,0.0,1.92333,0.00043,396.747,0.026,0.4025,0.0016,139.999,44.999,31786.06566,1.93107,398.689,35.252,45.069,45.001,0.00,0.09,-272.75,-272.81,-10,528,-942,22.5,11.3,-9.2,22.6,11.4,-8.9,5.73,2.03,-5.1,28.2
2015-10-07 00:35:00,0.0,1.92322,0.00038,396.743,0.035,0.4041,0.0035,139.998,45.000,31787.12604,1.93095,398.693,35.323,45.070,45.002,0.00,0.09,-272.73,-272.80,-9,528,-942,22.5,11.3,-9.1,22.6,11.4,-8.9,5.73,1.74,-5.0,28.2
2015-10-07 00:36:00,0.0,1.92280,0.00038,396.739,0.029,0.4021,0.0028,139.998,45.001,31790.26423,1.93049,398.679,35.389,45.070,45.002,0.00,0.09,-272.74,-272.79,-9,527,-942,22.4,11.3,-9.2,22.6,11.4,-8.9,5.73,1.97,-5.1,28.1
2015-10-07 00:37:00,0.0,1.92317,0.00040,396.756,0.032,0.4047,0.0020,140.002,45.001,31792.68423,1.93093,398.711,35.467,45.070,45.001,0.00,0.09,-272.75,-272.80,-10,527,-942,22.5,11.3,-9.1,22.7,11.4,-8.9,5.73,2.06,-5.0,28.2
2015-10-07 00:38:00,0.0,1.92296,0.00054,396.748,0.028,0.4012,0.0024,139.999,45.002,31794.58777,1.93066,398.685,35.541,45.069,45.001,0.00,0.09,-272.74,-272.80,-10,528,-942,22.5,11.2,-9.2,22.7,11.4,-8.9,5.73,1.74,-5.0,28.2
2015-10-07 00:39:00,0.0,1.92301,0.00040,396.732,0.033,0.4002,0.0020,139.998,45.002,31798.20358,1.93067,398.663,35.635,45.069,45.000,0.00,0.09,-272.74,-272.79,-9,528,-942,22.5,11.2,-9.2,22.7,11.3,-9.0,5.73,1.96,-5.0,28.2
2015-10-07 00:40:00,0.0,1.92256,0.00035,396.750,0.022,0.4018,0.0030,139.999,45.002,31801.58409,1.93024,398.688,35.724,45.068,45.000,0.00,0.09,-272.74,-272.81,-10,528,-942,22.5,11.2,-9.2,22.7,11.3,-8.9,5.73,2.07,-5.0,28.4
2015-10-07 00:41:00,0.0,1.92281,0.00035,396.742,0.029,0.4005,0.0023,140.002,45.002,31804.39539,1.93048,398.676,35.800,45.068,45.000,0.00,0.09,-272.74,-272.81,-11,528,-942,22.5,11.2,-9.2,22.7,11.3,-8.9,5.73,1.73,-5.0,28.3
2015-10-07 00:42:00,0.0,1.92278,0.00043,396.725,0.032,0.3961,0.0034,140.003,45.001,31805.90909,1.93037,398.639,35.903,45.068,45.000,0.00,0.09,-272.74,-272.79,-9,528,-942,22.5,11.1,-9.4,22.7,11.2,-9.0,5.73,2.02,-5.0,28.3
2015-10-07 00:43:00,0.0,1.92269,0.00032,396.701,0.037,0.3977,0.0026,139.998,45.001,31808.27969,1.93031,398.618,35.998,45.068,44.999,0.00,0.09,-272.74,-272.81,-9,528,-943,22.4,11.1,-9.3,22.7,11.2,-9.1,5.73,2.00,-5.0,28.3
2015-10-07 00:44:00,0.0,1.92275,0.00050,396.683,0.027,0.4008,0.0025,140.000,45.001,31809.25758,1.93037,398.618,36.056,45.068,45.000,0.00,0.09,-272.74,-272.81,-10,528,-943,22.5,11.2,-9.2,22.6,11.3,-9.0,5.73,1.74,-5.0,28.4
2015-10-07 00:45:00,0.0,1.92280,0.00064,396.699,0.053,0.3997,0.0038,139.999,45.001,31811.39165,1.93050,398.630,36.120,45.068,45.000,0.00,0.09,-272.75,-272.80,-10,528,-943,22.5,11.2,-9.2,22.6,11.3,-8.9,5.73,2.09,-5.0,28.4
2015-10-07 00:46:00,0.0,1.92264,0.00049,396.706,0.041,0.4004,0.0021,140.000,45.001,31813.31127,1.93029,398.635,36.170,45.068,45.000,0.00,0.09,-272.74,-272.80,-9,528,-943,22.4,11.2,-9.2,22.6,11.3,-9.0,5.73,1.89,-5.0,28.4
2015-10-07 00:47:00,0.0,1.92259,0.00030,396.703,0.037,0.3993,0.0021,140.000,45.001,31815.56792,1.93024,398.633,36.228,45.068,45.000,0.00,0.09,-272.75,-272.81,-10,527,-943,22.4,11.2,-9.2,22.7,11.3,-9.0,5.73,1.81,-5.0,28.4
2015-10-07 00:48:00,0.0,1.92245,0.00031,396.673,0.039,0.3999,0.0031,140.000,45.001,31817.79264,1.93007,398.602,36.298,45.068,45.000,0.00,0.09,-272.74,-272.80,-10,528,-943,22.4,11.2,-9.2,22.7,11.3,-9.0,5.73,2.12,-5.0,28.4
2015-10-07 00:49:00,0.0,1.92256,0.00034,396.678,0.037,0.4005,0.0024,140.001,45.001,31819.03149,1.93024,398.613,36.357,45.068,45.000,0.00,0.09,-272.73,-272.79,-9,527,-943,22.5,11.2,-9.2,22.6,11.3,-9.0,5.73,1.77,-5.0,28.3
2015-10-07 00:50:00,0.0,1.92265,0.00033,396.699,0.030,0.3984,0.0028,140.000,45.001,31821.44772,1.93027,398.621,36.376,45.068,45.000,0.00,0.09,-272.75,-272.80,-10,527,-943,22.5,11.2,-9.3,22.7,11.3,-9.0,5.73,1.93,-5.0,28.4
2015-10-07 00:51:00,0.0,1.92261,0.00040,396.682,0.035,0.4044,0.0015,140.000,45.001,31825.22918,1.93035,398.634,36.414,45.068,45.001,0.00,0.09,-272.75,-272.80,-10,528,-943,22.5,11.3,-9.1,22.7,11.4,-8.9,5.73,2.07,-5.0,28.4
2015-10-07 00:52:00,0.0,1.92239,0.00030,396.669,0.029,0.4039,0.0023,140.001,45.001,31828.29753,1.93014,398.620,36.471,45.069,45.001,0.00,0.09,-272.74,-272.80,-9,528,-943,22.5,11.3,-9.1,22.7,11.4,-8.8,5.73,1.72,-5.0,28.4
2015-10-07 00:53:00,0.0,1.92255,0.00047,396.677,0.029,0.4042,0.0030,139.999,45.001,31830.26685,1.93025,398.626,36.517,45.068,45.001,0.00,0.09,-272.75,-272.80,-9,528,-944,22.5,11.3,-9.1,22.7,11.4,-8.8,5.73,2.06,-5.0,28.5
2015-10-07 00:54:00,0.0,1.92245,0.00042,396.699,0.025,0.4045,0.0024,139.999,45.001,31833.55306,1.93020,398.652,36.579,45.069,45.001,0.00,0.09,-272.74,-272.81,-10,528,-944,22.5,11.3,-9.1,22.7,11.4,-8.8,5.73,1.93,-5.0,28.5
2015-10-07 00:55:00,0.0,1.92262,0.00043,396.712,0.033,0.4036,0.0024,140.001,45.001,31835.09799,1.93036,398.659,36.621,45.069,45.001,0.00,0.09,-272.74,-272.80,-9,528,-944,22.5,11.3,-9.1,22.7,11.4,-8.8,5.73,1.78,-5.0,28.6
2015-10-07 00:56:00,0.0,1.92286,0.00040,396.691,0.034,0.4053,0.0028,140.000,45.001,31834.92999,1.93059,398.648,36.623,45.068,45.000,0.00,0.09,-272.74,-272.79,-9,528,-944,22.5,11.3,-9.1,22.8,11.4,-8.8,5.73,2.12,-5.0,28.6
2015-10-07 00:57:00,0.0,1.92283,0.00042,396.686,0.030,0.4081,0.0031,140.002,45.000,31837.43462,1.93065,398.655,36.570,45.068,45.000,0.00,0.09,-272.74,-272.81,-10,528,-944,22.5,11.4,-9.0,22.7,11.5,-8.7,5.73,1.82,-5.0,28.6
2015-10-07 00:58:00,0.0,1.92288,0.00048,396.686,0.038,0.4081,0.0034,139.997,45.000,31837.00245,1.93073,398.658,36.500,45.068,45.000,0.00,0.09,-272.74,-272.80,-10,528,-944,22.4,11.5,-9.0,22.7,11.5,-8.8,5.73,1.81,-5.0,28.6
2015-10-07 00:59:00,0.0,1.92318,0.00034,396.710,0.025,0.4116,0.0017,139.998,44.999,31832.69198,1.93103,398.696,36.377,45.067,44.999,0.00,0.09,-272.74,-272.80,-9,528,-943,22.3,11.6,-8.9,22.6,11.6,-8.7,5.73,2.05,-5.0,28.5
2015-10-07 01:00:00,0.0,1.92302,0.00032,396.683,0.029,0.4073,0.0040,139.998,44.998,31828.05446,1.93084,398.651,36.199,45.067,44.999,0.00,0.09,-272.75,-272.81,-9,528,-943,22.3,11.5,-9.1,22.6,11.5,-8.8,5.73,2.03,-5.0,28.4
2015-10-07 01:01:00,0.0,1.92326,0.00035,396.691,0.031,0.4078,0.0042,139.999,44.997,31821.36307,1.93104,398.659,35.993,45.066,44.998,0.00,0.09,-272.74,-272.81,-9,528,-943,22.2,11.5,-9.0,22.5,11.5,-8.8,5.73,1.88,-5.0,28.4
2015-10-07 01:02:00,0.0,1.92342,0.00030,396.708,0.032,0.4114,0.0025,139.999,44.996,31814.87449,1.93131,398.694,35.781,45.065,44.997,0.00,0.09,-272.74,-272.80,-10,528,-942,22.2,11.7,-8.9,22.5,11.7,-8.7,5.73,1.81,-4.9,28.2
2015-10-07 01:03:00,0.0,1.92334,0.00037,396.716,0.033,0.4132,0.0026,139.996,44.996,31806.84595,1.93125,398.712,35.595,45.065,44.998,0.00,0.09,-272.74,-272.80,-10,528,-942,22.2,11.8,-8.8,22.4,11.7,-8.7,5.73,1.83,-5.0,28.2
2015-10-07 01:04:00,0.0,1.92350,0.00046,396.718,0.029,0.4159,0.0020,140.000,44.996,31801.19502,1.93149,398.724,35.422,45.066,44.998,0.00,0.09,-272.75,-272.80,-10,528,-942,22.1,11.8,-8.8,22.4,11.8,-8.6,5.73,1.93,-5.0,28.1
2015-10-07 01:05:00,0.0,1.92382,0.00049,396.745,0.024,0.4153,0.0029,140.001,44.996,31794.26427,1.93170,398.751,35.289,45.066,44.999,0.00,0.09,-272.75,-272.80,-10,528,-942,22.0,11.9,-8.8,22.3,11.9,-8.6,5.73,2.06,-5.0,28.1
2015-10-07 01:06:00,0.0,1.92356,0.00034,396.729,0.032,0.4160,0.0029,139.999,44.997,31788.08900,1.93154,398.739,35.198,45.067,44.999,0.00,0.09,-272.73,-272.80,-9,527,-941,22.0,11.9,-8.8,22.4,11.9,-8.5,5.73,2.00,-5.0,27.9
2015-10-07 01:07:00,0.0,1.92380,0.00040,396.720,0.036,0.4161,0.0021,139.999,44.998,31784.51352,1.93178,398.729,35.173,45.068,45.000,0.00,0.09,-272.74,-272.81,-9,527,-942,22.0,11.9,-8.8,22.4,11.9,-8.6,5.73,1.77,-5.0,27.9
2015-10-07 01:08:00,0.0,1.92383,0.00044,396.737,0.044,0.4133,0.0025,140.000,44.999,31783.70076,1.93174,398.730,35.186,45.069,45.001,0.00,0.09,-272.75,-272.80,-9,527,-941,22.0,11.8,-8.9,22.3,11.9,-8.6,5.73,1.88,-5.0,27.9
2015-10-07 01:09:00,0.0,1.92425,0.00060,396.786,0.032,0.4143,0.0027,139.997,45.000,31782.40004,1.93219,398.788,35.245,45.069,45.002,0.00,0.09,-272.74,-272.80,-10,527,-942,22.0,11.8,-8.9,22.3,11.9,-8.6,5.73,2.11,-5.0,28.0
2015-10-07 01:10:00,0.0,1.92442,0.00032,396.771,0.032,0.4146,0.0022,140.001,45.001,31784.21259,1.93236,398.773,35.326,45.070,45.002,0.00,0.09,-272.74,-272.81,-10,527,-942,22.0,11.9,-8.8,22.3,11.9,-8.5,5.73,1.84,-5.0,28.0
2015-10-07 01:11:00,0.0,1.92480,0.00039,396.805,0.042,0.4164,0.0023,140.003,45.001,31785.18322,1.93276,398.815,35.407,45.070,45.002,0.00,0.09,-272.74,-272.81,-9,527,-942,22.0,12.0,-8.8,22.3,11.9,-8.5,5.73,1.83,-5.0,27.9
2015-10-07 01:12:00,0.0,1.92478,0.00036,396.792,0.040,0.4171,0.0018,139.996,45.002,31785.69481,1.93277,398.806,35.493,45.070,45.002,0.00,0.09,-272.75,-272.80,-9,526,-942,22.0,12.0,-8.7,22.3,12.0,-8.4,5.73,2.13,-5.0,28.0
2015-10-07 01:13:00,0.0,1.92496,0.00038,396.841,0.033,0.4171,0.0020,139.997,45.002,31788.11971,1.93298,398.856,35.594,45.069,45.001,0.00,0.09,-272.74,-272.81,-10,526,-942,22.0,12.0,-8.7,22.3,12.0,-8.5,5.73,1.81,-5.0,28.0
2015-10-07 01:14:00,0.0,1.92481,0.00038,396.814,0.031,0.4175,0.0019,139.999,45.002,31792.96469,1.93281,398.831,35.695,45.069,45.001,0.00,0.09,-272.75,-272.81,-9,527,-942,22.0,12.0,-8.7,22.3,12.0,-8.5,5.73,1.88,-5.0,28.0
2015-10-07 01:15:00,0.0,1.92477,0.00037,396.828,0.034,0.4197,0.0028,140.002,45.002,31796.31424,1.93280,398.855,35.779,45.069,45.000,0.00,0.09,-272.75,-272.81,-9,526,-942,22.0,12.1,-8.6,22.3,12.1,-8.4,5.73,2.11,-5.0,28.1
2015-10-07 01:16:00,0.0,1.92466,0.00036,396.808,0.034,0.4235,0.0020,140.000,45.002,31799.67946,1.93281,398.855,35.888,45.068,45.000,0.00,0.09,-272.74,-272.80,-10,526,-943,22.0,12.2,-8.5,22.3,12.2,-8.3,5.73,1.76,-5.0,28.0
2015-10-07 01:17:00,0.0,1.92506,0.00051,396.835,0.029,0.4241,0.0024,140.000,45.002,31801.46035,1.93318,398.883,35.974,45.068,45.000,0.00,0.09,-272.75,-272.80,-10,526,-943,22.0,12.2,-8.5,22.3,12.2,-8.3,5.73,1.97,-5.0,28.0
2015-10-07 01:18:00,0.0,1.92501,0.00045,396.830,0.033,0.4310,0.0017,139.997,45.002,31803.63127,1.93324,398.912,36.068,45.068,45.000,0.00,0.09,-272.75,-272.80,-8,526,-943,22.1,12.4,-8.3,22.3,12.4,-8.1,5.73,2.06,-5.0,28.0
2015-10-07 01:19:00,0.0,1.92532,0.00045,396.849,0.026,0.4319,0.0024,140.001,45.002,31805.55703,1.93366,398.937,36.155,45.068,45.000,0.00,0.09,-272.74,-272.80,-10,526,-943,22.0,12.4,-8.3,22.3,12.4,-8.0,5.73,1.74,-4.9,28.0
2015-10-07 01:20:00,0.0,1.92551,0.00061,396.909,0.048,0.4260,0.0050,139.998,45.001,31807.39130,1.93369,398.967,36.242,45.068,45.000,0.00,0.09,-272.74,-272.80,-10,527,-943,22.1,12.2,-8.4,22.3,12.3,-8.1,5.73,2.05,-5.0,28.1
2015-10-07 01:21:00,0.0,1.92568,0.00058,396.899,0.045,0.4268,0.0035,140.001,45.001,31807.97553,1.93383,398.963,36.308,45.068,45.000,0.00,0.09,-272.74,-272.81,-9,527,-943,22.2,12.2,-8.3,22.4,12.3,-8.1,5.73,1.97,-4.9,28.1
2015-10-07 01:22:00,0.0,1.92596,0.00046,396.904,0.038,0.4229,0.0020,140.003,45.001,31810.18367,1.93406,398.946,36.360,45.068,45.000,0.00,0.09,-272.74,-272.80,-9,526,-943,22.1,12.1,-8.5,22.4,12.2,-8.2,5.73,1.76,-4.9,28.2
2015-10-07 01:23:00,0.0,1.92571,0.00039,396.914,0.031,0.4220,0.0014,139.996,45.001,31812.06657,1.93384,398.955,36.421,45.068,45.000,0.00,0.09,-272.74,-272.80,-10,527,-943,22.1,12.1,-8.5,22.4,12.2,-8.2,5.73,2.12,-4.9,28.3
2015-10-07 01:24:00,0.0,1.92621,0.00044,396.908,0.029,0.4232,0.0024,139.998,45.001,31814.37002,1.93429,398.952,36.483,45.068,45.001,0.00,0.09,-272.75,-272.81,-9,527,-944,22.2,12.1,-8.5,22.4,12.1,-8.3,5.73,1.82,-4.9,28.3
2015-10-07 01:25:00,0.0,1.92619,0.00041,396.929,0.034,0.4230,0.0031,140.000,45.001,31816.48696,1.93435,398.973,36.542,45.068,45.001,0.00,0.09,-272.75,-272.80,-9,526,-944,22.1,12.1,-8.5,22.4,12.2,-8.2,5.73,1.92,-4.9,28.3
2015-10-07 01:26:00,0.0,1.92623,0.00045,396.956,0.050,0.4229,0.0014,140.002,45.001,31820.19431,1.93432,399.000,36.603,45.068,45.001,0.00,0.09,-272.74,-272.80,-10,527,-944,22.1,12.1,-8.6,22.4,12.1,-8.3,5.73,2.06,-4.9,28.3
2015-10-07 01:27:00,0.0,1.92603,0.00041,396.898,0.043,0.4233,0.0021,140.003,45.001,31824.27389,1.93414,398.944,36.627,45.068,45.000,0.00,0.09,-272.74,-272.81,-9,527,-944,22.2,12.1,-8.5,22.4,12.1,-8.3,5.73,1.73,-4.9,28.3
2015-10-07 01:28:00,0.0,1.92584,0.00056,396.906,0.038,0.4215,0.0035,140.000,45.001,31824.68994,1.93396,398.944,36.638,45.068,45.000,0.00,0.09,-272.75,-272.80,-9,527,-944,22.1,12.0,-8.6,22.4,12.1,-8.2,5.73,2.08,-4.9,28.4
2015-10-07 01:29:00,0.0,1.92593,0.00038,396.912,0.047,0.4220,0.0020,139.998,45.000,31825.88895,1.93400,398.949,36.584,45.067,44.999,0.00,0.09,-272.74,-272.80,-10,527,-944,22.1,12.1,-8.5,22.3,12.1,-8.3,5.73,1.97,-4.9,28.4
2015-10-07 01:30:00,0.0,1.92616,0.00054,396.910,0.045,0.4229,0.0026,139.999,45.000,31825.90489,1.93432,398.956,36.459,45.067,44.999,0.00,0.09,-272.74,-272.80,-10,527,-944,22.0,12.2,-8.5,22.3,12.2,-8.2,5.73,1.76,-4.9,28.3
2015-10-07 01:31:00,0.0,1.92611,0.00043,396.897,0.036,0.4241,0.0029,139.996,44.998,31820.56344,1.93422,398.946,36.298,45.066,44.998,0.00,0.09,-272.75,-272.80,-9,527,-943,22.0,12.2,-8.5,22.3,12.2,-8.3,5.73,1.88,-4.9,28.1
2015-10-07 01:32:00,0.0,1.92567,0.00038,396.901,0.026,0.4210,0.0036,139.998,44.998,31815.98179,1.93375,398.936,36.089,45.066,44.998,0.00,0.09,-272.75,-272.79,-9,527,-943,22.0,12.1,-8.6,22.3,12.2,-8.3,5.73,2.01,-4.9,28.0
2015-10-07 01:33:00,0.0,1.92529,0.00045,396.909,0.035,0.4167,0.0026,139.999,44.997,31811.68742,1.93330,398.922,35.874,45.065,44.998,0.00,0.09,-272.74,-272.79,-9,527,-943,22.0,12.0,-8.7,22.3,12.1,-8.4,5.73,2.04,-4.9,27.9
2015-10-07 01:34:00,0.0,1.92545,0.00050,396.903,0.045,0.4141,0.0025,139.999,44.996,31802.33031,1.93339,398.904,35.661,45.065,44.998,0.00,0.09,-272.75,-272.81,-9,527,-942,22.0,11.9,-8.8,22.2,12.0,-8.5,5.73,1.98,-4.9,27.9
2015-10-07 01:35:00,0.0,1.92537,0.00027,396.880,0.037,0.4191,0.0034,139.998,44.996,31794.65580,1.93341,398.905,35.462,45.066,44.998,0.00,0.09,-272.74,-272.81,-9,527,-942,22.0,12.1,-8.7,22.2,12.1,-8.5,5.73,1.89,-4.9,27.8
2015-10-07 01:36:00,0.0,1.92559,0.00049,396.912,0.039,0.4182,0.0019,139.997,44.996,31787.79823,1.93361,398.933,35.275,45.066,44.998,0.00,0.09,-272.73,-272.80,-9,527,-942,21.9,12.1,-8.7,22.2,12.1,-8.4,5.73,1.82,-4.9,27.8
2015-10-07 01:37:00,0.0,1.92534,0.00042,396.900,0.032,0.4165,0.0022,139.998,44.996,31780.18008,1.93334,398.912,35.121,45.067,44.999,0.00,0.09,-272.74,-272.80,-9,527,-942,21.9,12.1,-8.7,22.1,12.1,-8.5,5.73,1.83,-4.9,27.8
2015-10-07 01:38:00,0.0,1.92544,0.00044,396.930,0.035,0.4162,0.0031,139.999,44.997,31774.31682,1.93340,398.940,35.014,45.068,45.000,0.00,0.09,-272.75,-272.80,-10,527,-941,21.8,12.1,-8.8,22.1,12.1,-8.5,5.73,1.95,-4.9,27.7
2015-10-07 01:39:00,0.0,1.92522,0.00040,396.921,0.040,0.4208,0.0024,140.000,44.998,31769.75632,1.93331,398.954,34.958,45.068,45.001,0.00,0.09,-272.75,-272.80,-10,526,-941,21.8,12.2,-8.6,22.1,12.2,-8.4,5.73,2.09,-4.9,27.7
2015-10-07 01:40:00,0.0,1.92500,0.00036,396.898,0.023,0.4211,0.0024,140.001,44.999,31769.15083,1.93309,398.932,34.972,45.069,45.001,0.00,0.09,-272.74,-272.81,-9,526,-941,21.8,12.2,-8.6,22.1,12.3,-8.4,5.73,1.94,-4.9,27.7
2015-10-07 01:41:00,0.0,1.92538,0.00045,396.934,0.030,0.4226,0.0020,140.002,44.999,31769.43427,1.93344,398.975,35.021,45.069,45.001,0.00,0.09,-272.75,-272.80,-8,526,-941,21.8,12.3,-8.6,22.1,12.3,-8.3,5.73,1.75,-4.9,27.7
2015-10-07 01:42:00,0.0,1.92538,0.00034,396.972,0.040,0.4246,0.0015,140.001,45.000,31769.43212,1.93354,399.024,35.102,45.070,45.002,0.00,0.09,-272.75,-272.80,-9,526,-942,21.8,12.4,-8.5,22.1,12.4,-8.3,5.73,2.02,-4.9,27.7
2015-10-07 01:43:00,0.0,1.92553,0.00038,397.011,0.030,0.4286,0.0019,139.997,45.001,31773.33818,1.93377,399.081,35.193,45.070,45.002,0.00,0.09,-272.74,-272.80,-10,526,-942,21.8,12.5,-8.4,22.1,12.5,-8.2,5.73,2.06,-4.9,27.7
2015-10-07 01:44:00,0.0,1.92575,0.00038,396.987,0.043,0.4310,0.0024,139.998,45.002,31774.96884,1.93401,399.073,35.294,45.070,45.001,0.00,0.09,-272.74,-272.81,-9,526,-942,21.8,12.5,-8.3,22.1,12.6,-8.1,5.73,1.76,-4.9,27.7
2015-10-07 01:45:00,0.0,1.92565,0.00035,396.961,0.031,0.4230,0.0027,139.997,45.002,31776.08805,1.93374,399.006,35.409,45.069,45.001,0.00,0.09,-272.74,-272.80,-8,526,-942,21.8,12.3,-8.5,22.1,12.4,-8.2,5.73,1.97,-4.9,27.7